sat.trackr.live / text

‹ back to catalog

UNKNOWN

NORAD 85061

UNKNOWN UNKNOWN UNKNOWN

§ Identity

Operator
Country
Launch date
Launch site
Launch vehicle
Mass (kg)
RCS (m²)

External: N2YO · Heavens-Above

§ Orbital elements

Epoch: 2026-05-23T23:22:20.813664Z

Period
112.66 min
Inclination
102.4046°
Eccentricity
0.0254746
Mean motion
12.78188893 rev/d
Perigee alt
1,151.9 km
Apogee alt
1,545.6 km
Semi-major
7,726.9 km
B*
1.2661e-2
RAAN
147.8309°
Arg perigee
228.9965°
Mean anomaly
157.0041°
Rev number
57,650

§ Raw data

UNKNOWN1 85061U          26143.97385201  .00003166  00000+0  12661-1 0  99932 85061 102.4046 147.8309 0254746 228.9965 157.0041 12.78188893576506

JSON: /api/v1/satellites/85061 · /tle

For live sub-satellite position, see the globe view (requires WebGL).

§ Visibility from observer

Set your observer location to see the next 7 days of passes ≥ 10°. The values pass through the URL so the page stays shareable.

No JS? Fill the form by hand. The geolocation button needs JavaScript.